"TOA5","AWS1","CR1000","7964","CR1000.Std.14","CPU:AWS1_114.CR1","64363","TBL110"
"TIMESTAMP","RECORD","Wind_spd_WVc(1)","Wind_spd_WVc(2)","Air_Temp_Avg","Humidity_Avg","SW_upper_Wm2_Avg","Rain_Tot","Press_Avg","Issui_Tot","Depth_cm","SR50A_Raw","Quality","Ground_Temp_Avg(1)","Ground_Temp_Avg(2)","SW_lower_Wm2_Avg","Albedo_Avg","SWC_per(1)","SWC_per(2)","Period(1)","Period(2)"
"TS","RN","","","","","","","","","","","","","","","","","","",""
"","","WVc","WVc","Avg","Avg","Avg","Tot","Avg","Tot","Smp","Smp","Smp","Avg","Avg","Avg","Avg","Smp","Smp","Smp","Smp"
"2017-03-10 00:00:00",278557,0.007,305.8,-4.67,99.9,0,0,855.6988,0,107.9,2.119,200,0.807,1.403,0.003792488,0,52.21,60.03,33.84,35.69
"2017-03-10 00:10:00",278558,0.038,305.8,-4.675,100,0,0,855.703,0,107.6,2.122,221,0.806,1.403,0.2199658,0,52.27,60.03,33.85,35.69
"2017-03-10 00:20:00",278559,0.008,305.8,-4.647,100,0,0,855.7156,0,105.5,2.143,204,0.815,1.412,0.2199744,0,52.27,60.03,33.85,35.69
"2017-03-10 00:30:00",278560,0.201,346.7,-4.722,100,0,0,855.6992,0,105.5,2.144,202,0.811,1.413,0,0,52.27,60.03,33.85,35.69
"2017-03-10 00:40:00",278561,0.122,47.74,-4.705,100,0,0,855.6912,0,105.4,2.145,198,0.819,1.42,0.1099911,0,52.27,60.03,33.85,35.69
"2017-03-10 00:50:00",278562,0.322,359.9,-4.746,100,0.0865426,0,855.6474,0,105.4,2.144,204,0.828,1.425,0.01137854,0,52.27,60.03,33.85,35.69
"2017-03-10 01:00:00",278563,0,59.87,-4.714,100,0.137681,0,855.6008,0,105.4,2.145,198,0.83,1.424,0,0,52.21,60.03,33.84,35.69
"2017-03-10 01:10:00",278564,0,0,-4.954,100,0.6294048,0,855.4498,0,105.3,2.148,199,0.854,1.43,0,0,52.21,60.03,33.84,35.69
"2017-03-10 01:20:00",278565,0,0,-5.378,99.6,0.5900492,0,855.2419,0,106.4,2.137,199,0.854,1.389,0,0,52.27,60.03,33.85,35.69
"2017-03-10 01:30:00",278566,0.263,6.409,-5.721,95.3,0.1809529,0,855.2542,0,105.9,2.144,207,0.862,1.385,0,0,52.27,60.03,33.85,35.69
"2017-03-10 01:40:00",278567,0.192,332.9,-5.308,93,0,0,855.2363,0,107.1,2.13,208,0.866,1.403,0.07206904,0,52.21,60.03,33.84,35.69
"2017-03-10 01:50:00",278568,0.344,26.31,-5.359,90,0,0,855.2288,0,106.8,2.134,214,0.871,1.435,0,0,52.27,60.03,33.85,35.69
"2017-03-10 02:00:00",278569,0.392,15.22,-5.752,91.9,0,0,855.0646,0,105.2,2.15,210,0.862,1.447,0,0,52.27,60.03,33.85,35.69
"2017-03-10 02:10:00",278570,0.064,9.02,-6.628,89.7,0.3698217,0,855.0343,0,105.3,2.155,209,0.835,1.444,0,0,52.27,60.03,33.85,35.69
"2017-03-10 02:20:00",278571,0.137,9.65,-7.121,94,0.09048869,0,855.0314,0,105.3,2.155,209,0.83,1.421,0,0,52.21,60.03,33.84,35.69
"2017-03-10 02:30:00",278572,0.055,9.7,-7.017,93.5,0,0,855.0339,0,104.9,2.159,211,0.858,1.391,0,0,52.21,60.03,33.84,35.69
"2017-03-10 02:40:00",278573,0.118,26.84,-7.015,92.1,0,0,854.8611,0,105.6,2.152,232,0.868,1.389,0,0,52.21,60.03,33.84,35.69
"2017-03-10 02:50:00",278574,0.249,153,-7.093,92.5,0,0,854.7767,0,105.9,2.148,214,0.863,1.402,0,0,52.27,60.03,33.85,35.69
"2017-03-10 03:00:00",278575,0.008,126.5,-7.061,92,0,0,854.7767,0,105,2.159,216,0.856,1.416,0,0,52.27,60.03,33.85,35.69
"2017-03-10 03:10:00",278576,0.193,173.9,-7.525,93,0,0,854.5638,0,105,2.159,209,0.855,1.416,0.07207511,0,52.27,60.09,33.85,35.7
"2017-03-10 03:20:00",278577,0.061,131.1,-6.976,93.2,0,0,854.5048,0,108,2.126,240,0.856,1.416,0.67523,0,52.27,60.03,33.85,35.69
"2017-03-10 03:30:00",278578,0.12,138.4,-6.52,93.4,0,0,854.3319,0,107.7,2.128,220,0.854,1.416,0.5045258,0,52.27,60.03,33.85,35.69
"2017-03-10 03:40:00",278579,0.477,138.2,-6.433,92.6,0,0,854.1569,0,108.8,2.118,215,0.854,1.416,0.2086385,0,52.27,60.03,33.85,35.69
"2017-03-10 03:50:00",278580,0.449,150.4,-6.07,94,0,0,854.1526,0,107.8,2.125,235,0.857,1.416,0.2769202,0,52.21,60.03,33.84,35.69
"2017-03-10 04:00:00",278581,0.31,153.5,-5.644,92.8,0,0,854.5153,0,108.1,2.12,241,0.853,1.416,0.3717558,0,52.27,60.03,33.85,35.69
"2017-03-10 04:10:00",278582,0.79,105.8,-5.464,94.6,0,0,854.7663,0,107.8,2.123,250,0.853,1.414,0.3679624,0,52.21,60.09,33.84,35.7
"2017-03-10 04:20:00",278583,0.933,103.8,-5.41,99.4,0,0,854.7767,0,108,2.121,233,0.844,1.413,0.2048451,0,52.27,60.03,33.85,35.69
"2017-03-10 04:30:00",278584,0.621,119,-5.429,100,0,0,854.7789,0,107.5,2.126,280,0.836,1.403,0.03034742,0,52.21,60.03,33.84,35.69
"2017-03-10 04:40:00",278585,0.609,111,-5.424,100,0,0,854.7789,0,108.1,2.12,337,0.843,1.382,0,0,52.27,60.03,33.85,35.69
"2017-03-10 04:50:00",278586,0.456,124.6,-5.483,100,0.01967157,0,854.7367,0,108,2.121,247,0.86,1.373,0,0,52.21,60.03,33.84,35.69
"2017-03-10 05:00:00",278587,0.262,111.5,-5.435,100,0,0,854.7684,0,108.6,2.115,214,0.839,1.375,0.1365634,0,52.27,60.03,33.85,35.69
"2017-03-10 05:10:00",278588,0.069,15.32,-5.32,100,0,0,854.7789,0,109,2.111,192,0.835,1.375,0.1934648,0,52.21,60.03,33.84,35.69
"2017-03-10 05:20:00",278589,0.049,105.6,-5.317,99,0,0,854.9539,0,109.3,2.108,193,0.842,1.373,0.1024225,0,52.21,60.03,33.84,35.69
"2017-03-10 05:30:00",278590,0.04,105,-5.33,98.6,0,0,855.0635,0,108.4,2.117,200,0.828,1.375,0.1858779,0,52.21,60.03,33.84,35.69
"2017-03-10 05:40:00",278591,0.124,107.5,-5.345,99.6,0,0,855.1478,0,108.6,2.115,199,0.84,1.375,0.2124319,0,52.27,60.03,33.85,35.69
"2017-03-10 05:50:00",278592,0.263,63.24,-5.348,100,0,0,855.4177,0.5,109.9,2.102,201,0.831,1.375,0.2086385,0,52.27,60.03,33.85,35.69
"2017-03-10 06:00:00",278593,0.081,67.01,-5.304,100,0,0,855.5443,0,109.9,2.102,212,0.827,1.379,0.2276056,0,52.27,60.03,33.85,35.69
"2017-03-10 06:10:00",278594,0.131,86,-5.291,100,0.20065,0,855.5612,0.5,109.3,2.108,273,0.835,1.39,0.7093708,2.86,52.27,60.03,33.85,35.69
"2017-03-10 06:20:00",278595,0.292,49.95,-5.328,100,0.2360588,0,855.6644,0,109.3,2.108,227,0.834,1.427,0.8421408,3.568,52.21,60.03,33.84,35.69
"2017-03-10 06:30:00",278596,0.263,17.35,-5.284,100,0.4052343,0,855.8773,0,109.6,2.104,197,0.825,1.402,1.202516,3.136,52.21,60.03,33.84,35.69
"2017-03-10 06:40:00",278597,0.019,109,-5.208,100,1.884536,0,855.9638,0,110.5,2.095,191,0.828,1.427,4.696263,2.584,52.27,60.03,33.85,35.69
"2017-03-10 06:50:00",278598,0.01,44.69,-5.171,100,5.142148,0,855.8373,0.5,110.5,2.095,187,0.825,1.444,12.50313,2.419,52.21,60.03,33.84,35.69
"2017-03-10 07:00:00",278599,0.014,137.2,-5.102,100,7.974854,0,855.8246,0,110.6,2.093,190,0.835,1.438,19.99136,2.501,52.21,60.03,33.84,35.69
"2017-03-10 07:10:00",278600,0.087,60.63,-4.993,100,8.352548,0,855.9723,0,110.7,2.092,189,0.848,1.438,21.13318,2.534,52.27,60.03,33.85,35.69
"2017-03-10 07:20:00",278601,0.066,60.09,-4.862,100,11.59049,0,856.0439,0,110.9,2.09,177,0.841,1.422,28.97419,2.503,52.21,60.03,33.84,35.69
"2017-03-10 07:30:00",278602,0.044,72,-4.811,99.7,9.237767,0,856.1705,0,111.1,2.087,189,0.868,1.417,23.02231,2.493,52.21,60.03,33.84,35.69
"2017-03-10 07:40:00",278603,0.002,26.69,-4.749,100,9.241702,0,856.3855,0,111.1,2.087,180,0.891,1.416,23.02231,2.494,52.21,60.03,33.84,35.69
"2017-03-10 07:50:00",278604,0.044,73.45,-4.671,100,17.18115,0,856.5541,0,111.1,2.087,192,0.897,1.416,42.5888,2.474,52.27,60.03,33.85,35.69
"2017-03-10 08:00:00",278605,0.06,309.5,-4.649,100,12.28686,0,856.8303,0.5,110.7,2.091,230,0.891,1.42,29.58494,2.4,52.27,60.03,33.85,35.69
"2017-03-10 08:10:00",278606,0.056,246.5,-4.605,100,19.8132,0,857.0707,0,111.5,2.082,312,0.871,1.425,47.97168,2.417,52.21,60.03,33.84,35.69
"2017-03-10 08:20:00",278607,0.113,332.1,-4.549,100,24.35339,0,857.24,0,111,2.088,214,0.864,1.44,60.52032,2.47,52.27,60.03,33.85,35.69
"2017-03-10 08:30:00",278608,0.249,312.3,-4.551,100,35.34543,0,857.3204,0.5,110.9,2.088,203,0.868,1.463,87.47533,2.473,52.21,60.03,33.84,35.69
"2017-03-10 08:40:00",278609,0.336,309.1,-4.318,99.9,52.71807,0,857.514,0,110.7,2.089,202,0.91,1.452,125.088,2.393,52.27,60.03,33.85,35.69
"2017-03-10 08:50:00",278610,0.346,348.8,-4,96.8,54.86851,0,857.5107,0,110.9,2.086,206,0.891,1.443,135.0415,2.456,52.27,60.03,33.85,35.69
"2017-03-10 09:00:00",278611,0.813,293.3,-3.935,93.6,64.34913,0,857.6603,0,111,2.085,199,0.859,1.446,154.1675,2.394,52.27,60.03,33.85,35.69
"2017-03-10 09:10:00",278612,0.442,315.5,-3.925,92.8,45.78877,0,857.7879,0,111,2.085,193,0.808,1.45,113.7121,2.472,52.27,60.03,33.85,35.69
"2017-03-10 09:20:00",278613,0.429,302.7,-3.906,95.6,49.97435,0,857.9695,0,111,2.084,191,0.779,1.454,123.8371,2.472,52.21,60.03,33.84,35.69
"2017-03-10 09:30:00",278614,0.344,278.3,-3.664,96.1,48.45093,0,858.1165,0,111,2.085,192,0.772,1.43,120.8228,2.487,52.21,60.03,33.84,35.69
"2017-03-10 09:40:00",278615,0.282,271.8,-3.858,98,28.03434,0,858.2324,0,111,2.084,189,0.775,1.423,65.47903,2.333,52.21,60.03,33.84,35.69
"2017-03-10 09:50:00",278616,0.514,325.2,-3.8,97.5,54.11774,0,858.4453,0,111.2,2.082,194,0.805,1.429,135.3338,2.493,52.21,60.03,33.84,35.69
"2017-03-10 10:00:00",278617,0.531,337.4,-3.546,92.5,77.31831,0,858.4832,0,110.9,2.083,176,0.845,1.449,193.8311,2.516,52.27,60.03,33.85,35.69
"2017-03-10 10:10:00",278618,0.642,299.5,-3.251,86.1,78.21502,0,858.4854,0,111.2,2.081,189,0.852,1.468,195.6438,2.5,52.27,60.03,33.85,35.69
"2017-03-10 10:20:00",278619,0.48,326.3,-2.839,83.1,109.1951,0,858.4854,0,110.8,2.082,189,0.845,1.456,265.8324,2.443,52.27,60.03,33.85,35.69
"2017-03-10 10:30:00",278620,1.029,321,-3.088,80.7,68.69724,0,858.4854,0,111.2,2.081,174,0.798,1.458,168.6248,2.435,52.21,60.03,33.84,35.69
"2017-03-10 10:40:00",278621,0.975,310.6,-3.396,84,63.04928,0,858.6813,0,111,2.083,197,0.831,1.457,160.5622,2.538,52.27,60.03,33.85,35.69
"2017-03-10 10:50:00",278622,0.945,319.7,-3.317,84.7,88.45739,0,858.8191,0,111,2.082,192,0.846,1.449,227.452,2.571,52.21,60.03,33.84,35.69
"2017-03-10 11:00:00",278623,0.903,296.3,-3.487,87.4,53.77818,0,858.9393,0,111.5,2.079,192,0.829,1.431,133.9669,2.479,52.21,60.03,33.84,35.69
"2017-03-10 11:10:00",278624,0.989,326.9,-3.893,90.5,42.4766,0,859.0655,0,111.8,2.077,225,0.813,1.412,102.5405,2.391,52.27,60.03,33.85,35.69
"2017-03-10 11:20:00",278625,0.827,286.9,-3.774,91.1,86.22753,0,859.1639,0,111.5,2.077,198,0.812,1.401,220.101,2.554,52.21,60.03,33.84,35.69
"2017-03-10 11:30:00",278626,0.478,167,-2.611,84,160.5215,0,859.128,0.5,111.7,2.071,190,0.812,1.395,375.6354,2.381,52.27,60.03,33.85,35.69
"2017-03-10 11:40:00",278627,1.133,312.4,-2.596,80.2,109.3173,0,859.165,0,111.8,2.074,181,0.788,1.361,275.4943,2.494,52.27,60.03,33.85,35.69
"2017-03-10 11:50:00",278628,1.115,287.4,-2.894,77.54,112.7885,0,859.2691,0,111.9,2.073,180,0.776,1.319,280.9838,2.502,52.27,60.03,33.85,35.69
"2017-03-10 12:00:00",278629,0.969,270.4,-2.674,75.27,120.6517,0,859.2687,0,111.8,2.071,176,0.769,1.304,318.9584,2.615,52.21,60.03,33.84,35.69
"2017-03-10 12:10:00",278630,1.323,290.6,-2.108,71.08,217.6993,0,859.2687,0,112.1,2.066,188,0.78,1.292,577.4499,2.621,52.27,60.03,33.85,35.69
"2017-03-10 12:20:00",278631,0.744,308.8,-1.272,67.85,259.4407,0,859.176,0,111.7,2.068,188,0.816,1.344,680.5664,2.612,52.27,60.03,33.85,35.69
"2017-03-10 12:30:00",278632,1.084,302.4,-0.925,66.49,252.5832,0,859.1871,0,111.2,2.072,188,0.771,1.438,622.6575,2.44,52.32,60.03,33.87,35.69
"2017-03-10 12:40:00",278633,0.927,346.1,-1.62,68.66,136.7698,0,859.2003,0,111.2,2.075,185,0.777,1.376,326.6558,2.404,52.21,60.03,33.84,35.69
"2017-03-10 12:50:00",278634,1.324,308.5,-2.438,66.31,77.78673,0,859.1327,0,111.2,2.078,184,0.782,1.345,184.2437,2.364,52.27,60.03,33.85,35.69
"2017-03-10 13:00:00",278635,0.81,282.5,-2.452,66.19,113.0224,0,859.1047,0,111,2.078,189,0.734,1.331,259.3407,2.301,52.27,60.03,33.85,35.69
"2017-03-10 13:10:00",278636,1.449,299.6,-2.23,63.02,149.2656,0,859.0746,0,111.9,2.069,255,0.68,1.347,333.331,2.244,52.21,60.03,33.84,35.69
"2017-03-10 13:20:00",278637,1.041,298.5,-1.981,62.02,145.0397,0,859.0745,0,111.1,2.076,185,0.677,1.353,324.833,2.244,52.27,60.03,33.85,35.69
"2017-03-10 13:30:00",278638,1.482,302.5,-1.907,61.04,192.5173,0,859.0765,0,111,2.076,192,0.677,1.343,405.5231,2.109,52.21,60.03,33.84,35.69
"2017-03-10 13:40:00",278639,0.812,334.7,-2.134,64.44,91.81936,0,859.0534,0,111.2,2.078,192,0.677,1.335,207.1138,2.266,52.21,60.03,33.84,35.69
"2017-03-10 13:50:00",278640,1.145,335.3,-2.603,68.07,84.66232,0,859.1418,0,111.1,2.079,192,0.679,1.363,196.4576,2.338,52.21,60.03,33.84,35.69
"2017-03-10 14:00:00",278641,0.82,331,-2.597,67.83,81.21152,0,859.2703,0,110.8,2.083,174,0.703,1.366,193.1531,2.413,52.21,60.03,33.84,35.69
"2017-03-10 14:10:00",278642,1.021,274.6,-3.018,72.18,62.55052,0,859.2556,0,110.3,2.09,176,0.717,1.366,148.2735,2.373,52.27,60.03,33.85,35.69
"2017-03-10 14:20:00",278643,1.35,312.4,-3.617,75.05,66.19782,0,859.3187,0,110.2,2.092,175,0.725,1.318,162.3858,2.457,52.21,60.03,33.84,35.69
"2017-03-10 14:30:00",278644,0.982,284,-3.502,73.73,67.13721,0,859.3209,0,110.3,2.089,187,0.743,1.281,154.0944,2.3,52.21,60.03,33.84,35.69
"2017-03-10 14:40:00",278645,1.39,295.9,-3.012,71.51,77.38627,0,859.4978,0,110.7,2.084,195,0.735,1.284,169.9597,2.194,52.21,60.03,33.84,35.69
"2017-03-10 14:50:00",278646,1.172,291.4,-3.102,70.37,61.14049,0,859.6804,0,110.6,2.086,193,0.757,1.309,133.2105,2.179,52.21,60.03,33.84,35.69
"2017-03-10 15:00:00",278647,1.158,296.1,-3.152,70.81,50.48471,0,859.7,0,110.6,2.087,198,0.792,1.291,110.5521,2.195,52.21,60.03,33.84,35.69
"2017-03-10 15:10:00",278648,0.864,352.7,-3.284,70.19,57.02612,0,859.7756,0,110.5,2.087,196,0.821,1.278,143.7734,2.52,52.27,60.03,33.85,35.69
"2017-03-10 15:20:00",278649,0.604,292.8,-3.235,70.04,36.84282,0,859.8798,0,110.8,2.085,196,0.781,1.292,88.16619,2.401,52.27,60.03,33.85,35.69
"2017-03-10 15:30:00",278650,1.24,299.9,-3.529,67.98,31.61802,0,859.9003,0,110.7,2.087,179,0.763,1.353,68.87543,2.171,52.21,60.03,33.84,35.69
"2017-03-10 15:40:00",278651,1.029,269,-3.549,68.99,25.37077,0,859.7336,0,110.7,2.086,179,0.763,1.368,57.94667,2.277,52.27,60.03,33.85,35.69
"2017-03-10 15:50:00",278652,0.692,264.6,-3.397,68.76,22.83096,0,859.6604,0,110.7,2.086,184,0.805,1.368,54.67523,2.386,52.21,60.03,33.84,35.69
"2017-03-10 16:00:00",278653,0.521,5.167,-3.022,68.83,30.74925,0,859.6605,0,110.5,2.086,179,0.771,1.369,73.19726,2.363,52.27,60.03,33.85,35.69
"2017-03-10 16:10:00",278654,0.756,272.3,-2.925,67.01,32.36515,0,859.6794,0.5,110.5,2.086,179,0.765,1.369,75.31633,2.312,52.21,60.03,33.84,35.69
"2017-03-10 16:20:00",278655,0.701,236.6,-3.36,66.51,15.36873,0,859.8502,0,110.6,2.087,180,0.764,1.373,32.06668,2.073,52.27,60.03,33.85,35.69
"2017-03-10 16:30:00",278656,0.901,287.7,-3.541,67.04,11.51573,0,859.8164,0,110.8,2.087,182,0.764,1.402,27.18409,2.365,52.27,60.03,33.85,35.69
"2017-03-10 16:40:00",278657,0.497,320.1,-3.596,67.1,12.63265,0,859.6866,0,110.6,2.087,181,0.77,1.386,29.8233,2.338,52.27,60.03,33.85,35.69
"2017-03-10 16:50:00",278658,0.784,10.8,-3.561,68.2,12.65323,0,859.8338,0,110.6,2.088,179,0.775,1.377,30.21978,2.384,52.21,60.03,33.84,35.69
"2017-03-10 17:00:00",278659,1.022,300.4,-3.627,67.74,6.834496,0,859.9394,0,110.6,2.089,178,0.736,1.407,18.44601,2.703,52.27,60.03,33.85,35.69
"2017-03-10 17:10:00",278660,1.046,297,-3.977,69.11,6.882292,0,859.9975,0,110.5,2.091,178,0.763,1.434,19.14914,2.787,52.21,60.03,33.84,35.69
"2017-03-10 17:20:00",278661,1.181,286.8,-4.178,71.44,6.796031,0,860.0984,0,110.5,2.091,178,0.787,1.451,19.54804,2.904,52.27,60.03,33.85,35.69
"2017-03-10 17:30:00",278662,1.537,284.2,-4.267,72.82,7.4018,0,860.3986,0,110.6,2.091,182,0.804,1.442,23.99266,3.325,52.21,60.03,33.84,35.69
"2017-03-10 17:40:00",278663,0.798,280.8,-4.36,74.17,2.237855,0,860.5085,0,110.6,2.091,187,0.813,1.402,8.702926,3.95,52.27,60.03,33.85,35.69
"2017-03-10 17:50:00",278664,0.57,249.9,-4.453,74.7,0.6292747,0,860.5739,0,110.6,2.092,182,0.832,1.378,4.41783,9.73,52.27,60.03,33.85,35.69
"2017-03-10 18:00:00",278665,0.89,272.3,-4.615,75.04,0.03146375,0,860.7509,0,110.5,2.093,187,0.849,1.374,1.076965,0.996,52.21,60.03,33.84,35.69
"2017-03-10 18:10:00",278666,0.926,279.2,-4.681,76.34,0,0,860.8036,0,110.4,2.094,179,0.846,1.373,0.1365167,0,52.27,60.03,33.85,35.69
"2017-03-10 18:20:00",278667,0.55,252,-4.81,78.19,0,0,860.9216,0,110.5,2.094,178,0.837,1.376,0,0,52.21,60.03,33.84,35.69
"2017-03-10 18:30:00",278668,0.227,205.5,-4.993,79.88,0,0,860.8563,0,110.6,2.094,180,0.821,1.379,0,0,52.21,60.03,33.84,35.69
"2017-03-10 18:40:00",278669,0.559,205.1,-5.25,81.7,0,0,860.9701,0,110.5,2.096,179,0.789,1.383,0,0,52.21,60.03,33.84,35.69
"2017-03-10 18:50:00",278670,0.303,226.2,-5.263,83.1,0,0,861.0081,0,110.3,2.097,179,0.808,1.354,0,0,52.27,60.03,33.85,35.69
"2017-03-10 19:00:00",278671,0.362,267.2,-5.27,83.3,0,0,860.9933,0,110.4,2.096,179,0.816,1.339,0.04171552,0,52.21,60.03,33.84,35.69
"2017-03-10 19:10:00",278672,0.259,241.3,-5.109,83.6,0,0,861.0236,0,110.3,2.096,175,0.837,1.361,0.2237607,0,52.27,60.03,33.85,35.69
"2017-03-10 19:20:00",278673,0.604,282.1,-5.044,85.2,0,0,861.0451,0,110.2,2.098,210,0.86,1.386,0.2541227,0,52.21,60.03,33.84,35.69
"2017-03-10 19:30:00",278674,0.425,271.4,-5.069,87.7,0,0,861.0617,0,108.4,2.115,195,0.872,1.397,0.2275856,0,52.27,60.03,33.85,35.69
"2017-03-10 19:40:00",278675,0.459,277.5,-5.113,89.8,0,0,861.1789,0,109.8,2.102,266,0.881,1.41,0.2275972,0,52.21,60.03,33.84,35.69
"2017-03-10 19:50:00",278676,0.363,218.7,-5.068,91.7,0,0,861.3509,0,109.1,2.109,249,0.887,1.419,0.2200151,0,52.27,60.03,33.85,35.69
"2017-03-10 20:00:00",278677,0.718,256.6,-5.153,93.4,0,0,861.3509,0,109.8,2.102,231,0.884,1.416,0.1820815,0,52.21,60.03,33.84,35.69
"2017-03-10 20:10:00",278678,1.045,277.6,-5.134,94,0,0,861.362,0,110.6,2.094,213,0.885,1.422,0.1972549,0,52.21,60.03,33.84,35.69
"2017-03-10 20:20:00",278679,0.867,255.1,-5.149,94.9,0,0,861.363,0,110.8,2.092,217,0.888,1.433,0.00379336,0,52.21,60.03,33.84,35.69
"2017-03-10 20:30:00",278680,0.971,270.3,-5.181,95,0,0,861.367,0,110.9,2.091,192,0.867,1.419,0,0,52.21,60.03,33.84,35.69
"2017-03-10 20:40:00",278681,0.609,230.9,-5.14,93.7,0,0,861.513,0,110.5,2.095,195,0.829,1.421,0.02655393,0,52.27,60.03,33.85,35.69
"2017-03-10 20:50:00",278682,0.5,230.6,-5.231,94.2,0,0,861.5911,0,110.7,2.093,198,0.831,1.422,0,0,52.27,60.03,33.85,35.69
"2017-03-10 21:00:00",278683,0.727,242.4,-5.323,93.7,0.1652412,0,861.6185,0,110.8,2.093,199,0.837,1.428,0,0,52.21,60.03,33.84,35.69
"2017-03-10 21:10:00",278684,1.345,260.9,-5.342,92.6,0,0,861.8505,0,110.8,2.093,199,0.828,1.431,0,0,52.27,60.03,33.85,35.69
"2017-03-10 21:20:00",278685,1.16,276.6,-5.409,91.1,0,0,861.8694,0,110.8,2.093,195,0.827,1.446,0,0,52.21,60.03,33.84,35.69
"2017-03-10 21:30:00",278686,1.176,249.6,-5.495,91.8,0,0,861.9412,0,111.2,2.089,186,0.825,1.45,0,0,52.27,60.03,33.85,35.69
"2017-03-10 21:40:00",278687,1.487,260.5,-5.517,91.8,0,0,862.1097,0,111.3,2.088,172,0.831,1.442,0.003793427,0,52.21,60.03,33.84,35.69
"2017-03-10 21:50:00",278688,0.682,268.5,-5.559,90.9,0,0,862.2869,0,111.3,2.088,189,0.827,1.432,0,0,52.21,60.03,33.84,35.69
"2017-03-10 22:00:00",278689,0.796,241.6,-5.635,89.2,0,0,862.2764,0,111.2,2.089,188,0.827,1.415,0,0,52.21,60.03,33.84,35.69
"2017-03-10 22:10:00",278690,0.636,199.5,-5.663,89.3,0,0,862.1161,0,111.3,2.089,189,0.831,1.413,0,0,52.27,60.03,33.85,35.69
"2017-03-10 22:20:00",278691,0.533,180.3,-5.733,89.7,0,0,862.1203,0,111,2.092,178,0.828,1.413,0,0,52.27,60.03,33.85,35.69
"2017-03-10 22:30:00",278692,0.701,182.7,-5.852,89.8,0,0,862.1161,0,111,2.093,178,0.835,1.397,0,0,52.21,60.03,33.84,35.69
"2017-03-10 22:40:00",278693,0.473,176.9,-5.932,90.4,0,0,862.1224,0,111,2.093,178,0.828,1.412,0,0,52.21,60.03,33.84,35.69
"2017-03-10 22:50:00",278694,0.439,194.1,-5.898,90.4,0,0,862.3058,0,110.9,2.093,192,0.823,1.385,0.1479437,0,52.27,60.03,33.85,35.69
"2017-03-10 23:00:00",278695,0.328,192.7,-5.83,89.9,0,0,862.386,0,110.9,2.094,181,0.832,1.385,0.06069483,0,52.21,60.03,33.84,35.69
"2017-03-10 23:10:00",278696,0.823,193.3,-5.912,90.3,0,0,862.5167,0,110.6,2.097,194,0.838,1.373,0.2238122,0,52.27,60.03,33.85,35.69
"2017-03-10 23:20:00",278697,0.659,166.5,-5.972,89.8,0,0,862.4387,0,110.8,2.095,193,0.837,1.375,0.06069483,0,52.21,60.03,33.84,35.69
"2017-03-10 23:30:00",278698,0.471,182.5,-6.055,90.3,0.0590147,0,862.3206,0,110.7,2.096,194,0.823,1.39,0,0,52.27,60.03,33.85,35.69
"2017-03-10 23:40:00",278699,0.474,199.7,-6.031,88.5,0,0,862.2448,0,110.7,2.096,193,0.834,1.39,0,0,52.27,60.03,33.85,35.69
"2017-03-10 23:50:00",278700,0.508,175.4,-6.067,87.9,0,0,862.1688,0,110.7,2.096,194,0.841,1.404,0,0,52.27,60.03,33.85,35.69
